This demonstration page uses our WeatherBlox Daily Observations layout. Learn more.

Left ArrowRight Arrow

36.17497, -115.13722

Hourly Observations for April 10, 2017

Temp ( °F °C ) Dew Point ( °F °C ) Humidity (%) Winds ( mph kmh ) Pressure ( in mb ) Visibility ( mi km ) Precip ( " mm )
12:53 am 00:53 Clear 54 12.2 19 -7.2 25 25 WNW 6 9 30.09 1019 10 16.0934 N/A
1:53 am 01:53 Clear 52 11.1 18 -7.8 26 26 N N/A 30.09 1019 10 16.0934 N/A
2:53 am 02:53 Clear 53 11.7 14 -10 21 21 W 5 7 30.07 1018 10 16.0934 N/A
3:53 am 03:53 Clear 51 10.6 16 -8.9 25 25 N N/A 30.08 1019 10 16.0934 N/A
4:53 am 04:53 Clear 51 10.6 18 -7.8 27 27 NW 6 9 30.09 1019 10 16.0934 N/A
5:53 am 05:53 Clear 51 10.6 17 -8.3 26 26 NW 6 9 30.11 1020 10 16.0934 N/A
6:53 am 06:53 Sunny 52 11.1 13 -10.6 21 21 NW 6 9 30.12 1020 10 16.0934 N/A
7:53 am 07:53 Sunny 55 12.8 11 -11.7 17 17 WNW 5 7 30.14 1021 10 16.0934 N/A
8:53 am 08:53 Sunny 58 14.4 13 -10.6 17 17 N N/A 30.14 1021 10 16.0934 N/A
9:53 am 09:53 Sunny 61 16.1 12 -11.1 14 14 N N/A 30.14 1021 10 16.0934 N/A
10:53 am 10:53 Sunny 66 18.9 8 -13.3 10 10 N N/A 30.14 1021 10 16.0934 N/A
11:53 am 11:53 Sunny 67 19.4 11 -11.7 11 11 VRB 3 6 30.12 1020 10 16.0934 N/A
12:53 pm 12:53 Sunny 69 20.6 10 -12.2 10 10 SSE 3 6 30.09 1019 10 16.0934 N/A
1:53 pm 13:53 Sunny 72 22.2 6 -14.4 7 7 E 6 9 30.07 1018 10 16.0934 N/A
2:53 pm 14:53 Sunny 73 22.8 3 -16.1 6 6 undefined N/A 30.04 1017 10 16.0934 N/A
3:53 pm 15:53 Sunny 74 23.3 2 -16.7 6 6 SE 7 11 30.01 1016 10 16.0934 N/A
4:53 pm 16:53 Sunny 74 23.3 2 -16.7 6 6 S 6 9 29.99 1016 10 16.0934 N/A
5:53 pm 17:53 Sunny 74 23.3 4 -15.6 6 6 S 5 7 29.98 1015 10 16.0934 N/A
6:53 pm 18:53 Sunny 72 22.2 5 -15 7 7 SE 5 7 29.97 1015 10 16.0934 N/A
7:53 pm 19:53 Clear 70 21.1 6 -14.4 8 8 ESE 5 7 29.97 1015 10 16.0934 N/A
8:53 pm 20:53 Clear 68 20 7 -13.9 9 9 N N/A 30.01 1016 10 16.0934 N/A
9:53 pm 21:53 Clear 63 17.2 16 -8.9 16 16 NW 5 7 30.01 1016 10 16.0934 N/A
10:53 pm 22:53 Clear 60 15.6 16 -8.9 18 18 NNW 5 7 30.01 1016 10 16.0934 N/A
11:53 pm 23:53 Clear 58 14.4 17 -8.3 20 20 NNW 7 11 30.02 1017 10 16.0934 N/A

Powered by AerisWeather